Year,Month,Day,Hour,Minute,Value (Times are PST for temperature in C)
2018,01,16,00,00,9.70
2018,01,16,00,01,9.70
2018,01,16,00,02,9.70
2018,01,16,00,03,9.70
2018,01,16,00,04,9.70
2018,01,16,00,05,9.70
2018,01,16,00,06,9.70
2018,01,16,00,07,9.80
2018,01,16,00,08,9.80
2018,01,16,00,09,9.80
2018,01,16,00,10,9.80
2018,01,16,00,11,9.80
2018,01,16,00,12,9.80
2018,01,16,00,13,9.80
2018,01,16,00,14,9.80
2018,01,16,00,15,9.80
2018,01,16,00,16,9.80
2018,01,16,00,17,9.80
2018,01,16,00,18,9.80
2018,01,16,00,19,9.80
2018,01,16,00,20,9.80
2018,01,16,00,21,9.70
2018,01,16,00,22,9.70
2018,01,16,00,23,9.70
2018,01,16,00,24,9.70
2018,01,16,00,25,9.60
2018,01,16,00,26,9.60
2018,01,16,00,27,9.60
2018,01,16,00,28,9.60
2018,01,16,00,29,9.60
2018,01,16,00,30,9.60
2018,01,16,00,31,9.50
2018,01,16,00,32,9.50
2018,01,16,00,33,9.50
2018,01,16,00,34,9.50
2018,01,16,00,35,9.50
2018,01,16,00,36,9.50
2018,01,16,00,37,9.50
2018,01,16,00,38,9.50
2018,01,16,00,39,9.40
2018,01,16,00,40,9.40
2018,01,16,00,41,9.40
2018,01,16,00,42,9.40
2018,01,16,00,43,9.40
2018,01,16,00,44,9.40
2018,01,16,00,45,9.40
2018,01,16,00,46,9.40
2018,01,16,00,47,9.40
2018,01,16,00,48,9.40
2018,01,16,00,49,9.40
2018,01,16,00,50,9.40
2018,01,16,00,51,9.40
2018,01,16,00,52,9.40
2018,01,16,00,53,9.40
2018,01,16,00,54,9.40
2018,01,16,00,55,9.40
2018,01,16,00,56,9.40
2018,01,16,00,57,9.40
2018,01,16,00,58,9.40
2018,01,16,00,59,9.40
2018,01,16,01,00,9.40
2018,01,16,01,01,9.40
2018,01,16,01,02,9.40
2018,01,16,01,03,9.40
2018,01,16,01,04,9.40
2018,01,16,01,05,9.40
2018,01,16,01,06,9.40
2018,01,16,01,07,9.40
2018,01,16,01,08,9.30
2018,01,16,01,09,9.30
2018,01,16,01,10,9.30
2018,01,16,01,11,9.30
2018,01,16,01,12,9.30
2018,01,16,01,13,9.30
2018,01,16,01,14,9.40
2018,01,16,01,15,9.30
2018,01,16,01,16,9.30
2018,01,16,01,17,9.30
2018,01,16,01,18,9.30
2018,01,16,01,19,9.30
2018,01,16,01,20,9.30
2018,01,16,01,21,9.30
2018,01,16,01,22,9.30
2018,01,16,01,23,9.30
2018,01,16,01,24,9.30
2018,01,16,01,25,9.30
2018,01,16,01,26,9.40
2018,01,16,01,27,9.40
2018,01,16,01,28,9.40
2018,01,16,01,29,9.40
2018,01,16,01,30,9.40
2018,01,16,01,31,9.40
2018,01,16,01,32,9.40
2018,01,16,01,33,9.40
2018,01,16,01,34,9.40
2018,01,16,01,35,9.40
2018,01,16,01,36,9.40
2018,01,16,01,37,9.40
2018,01,16,01,38,9.40
2018,01,16,01,39,9.40
2018,01,16,01,40,9.40
2018,01,16,01,41,9.40
2018,01,16,01,42,9.40
2018,01,16,01,43,9.40
2018,01,16,01,44,9.40
2018,01,16,01,45,9.40
2018,01,16,01,46,9.40
2018,01,16,01,47,9.40
2018,01,16,01,48,9.40
2018,01,16,01,49,9.40
2018,01,16,01,50,9.40
2018,01,16,01,51,9.40
2018,01,16,01,52,9.40
2018,01,16,01,53,9.40
2018,01,16,01,54,9.30
2018,01,16,01,55,9.30
2018,01,16,01,56,9.30
2018,01,16,01,57,9.30
2018,01,16,01,58,9.30
2018,01,16,01,59,9.30
2018,01,16,02,00,9.30
2018,01,16,02,01,9.30
2018,01,16,02,02,9.40
2018,01,16,02,03,9.40
2018,01,16,02,04,9.40
2018,01,16,02,05,9.40
2018,01,16,02,06,9.40
2018,01,16,02,07,9.40
2018,01,16,02,08,9.40
2018,01,16,02,09,9.40
2018,01,16,02,10,9.40
2018,01,16,02,11,9.40
2018,01,16,02,12,9.40
2018,01,16,02,13,9.40
2018,01,16,02,14,9.40
2018,01,16,02,15,9.40
2018,01,16,02,16,9.40
2018,01,16,02,17,9.40
2018,01,16,02,18,9.40
2018,01,16,02,19,9.40
2018,01,16,02,20,9.50
2018,01,16,02,21,9.50
2018,01,16,02,22,9.50
2018,01,16,02,23,9.50
2018,01,16,02,24,9.50
2018,01,16,02,25,9.50
2018,01,16,02,26,9.50
2018,01,16,02,27,9.50
2018,01,16,02,28,9.50
2018,01,16,02,29,9.50
2018,01,16,02,30,9.50
2018,01,16,02,31,9.50
2018,01,16,02,32,9.50
2018,01,16,02,33,9.50
2018,01,16,02,34,9.50
2018,01,16,02,35,9.50
2018,01,16,02,36,9.50
2018,01,16,02,37,9.50
2018,01,16,02,38,9.50
2018,01,16,02,39,9.50
2018,01,16,02,40,9.40
2018,01,16,02,41,9.40
2018,01,16,02,42,9.40
2018,01,16,02,43,9.40
2018,01,16,02,44,9.40
2018,01,16,02,45,9.40
2018,01,16,02,46,9.40
2018,01,16,02,47,9.40
2018,01,16,02,48,9.40
2018,01,16,02,49,9.40
2018,01,16,02,50,9.40
2018,01,16,02,51,9.40
2018,01,16,02,52,9.40
2018,01,16,02,53,9.40
2018,01,16,02,54,9.40
2018,01,16,02,55,9.40
2018,01,16,02,56,9.40
2018,01,16,02,57,9.40
2018,01,16,02,58,9.40
2018,01,16,02,59,9.40
2018,01,16,03,00,9.40
2018,01,16,03,01,9.40
2018,01,16,03,02,9.40
2018,01,16,03,03,9.40
2018,01,16,03,04,9.40
2018,01,16,03,05,9.40
2018,01,16,03,06,9.40
2018,01,16,03,07,9.40
2018,01,16,03,08,9.40
2018,01,16,03,09,9.40
2018,01,16,03,10,9.40
2018,01,16,03,11,9.40
2018,01,16,03,12,9.40
2018,01,16,03,13,9.40
2018,01,16,03,14,9.40
2018,01,16,03,15,9.40
2018,01,16,03,16,9.40
2018,01,16,03,17,9.40
2018,01,16,03,18,9.40
2018,01,16,03,19,9.40
2018,01,16,03,20,9.30
2018,01,16,03,21,9.30
2018,01,16,03,22,9.30
2018,01,16,03,23,9.30
2018,01,16,03,24,9.30
2018,01,16,03,25,9.30
2018,01,16,03,26,9.30
2018,01,16,03,27,9.30
2018,01,16,03,28,9.30
2018,01,16,03,29,9.30
2018,01,16,03,30,9.30
2018,01,16,03,31,9.30
2018,01,16,03,32,9.20
2018,01,16,03,33,9.20
2018,01,16,03,34,9.20
2018,01,16,03,35,9.20
2018,01,16,03,36,9.20
2018,01,16,03,37,9.20
2018,01,16,03,38,9.20
2018,01,16,03,39,9.20
2018,01,16,03,40,9.10
2018,01,16,03,41,9.10
2018,01,16,03,42,9.10
2018,01,16,03,43,9.10
2018,01,16,03,44,9.10
2018,01,16,03,45,9.10
2018,01,16,03,46,9.10
2018,01,16,03,47,9.10
2018,01,16,03,48,9.10
2018,01,16,03,49,9.10
2018,01,16,03,50,9.10
2018,01,16,03,51,9.10
2018,01,16,03,52,9.10
2018,01,16,03,53,9.10
2018,01,16,03,54,9.10
2018,01,16,03,55,9.10
2018,01,16,03,56,9.10
2018,01,16,03,57,9.10
2018,01,16,03,58,9.10
2018,01,16,03,59,9.10
2018,01,16,04,00,9.10
2018,01,16,04,01,9.10
2018,01,16,04,02,9.10
2018,01,16,04,03,9.10
2018,01,16,04,04,9.10
2018,01,16,04,05,9.10
2018,01,16,04,06,9.10
2018,01,16,04,07,9.10
2018,01,16,04,08,9.10
2018,01,16,04,09,9.10
2018,01,16,04,10,9.10
2018,01,16,04,11,9.10
2018,01,16,04,12,9.10
2018,01,16,04,13,9.10
2018,01,16,10,34,7.80
2018,01,16,10,35,7.80
2018,01,16,10,36,7.80
2018,01,16,10,37,7.80
2018,01,16,10,38,7.80
2018,01,16,10,39,7.90
2018,01,16,10,40,7.90
2018,01,16,10,41,7.90
2018,01,16,10,42,7.90
2018,01,16,10,43,7.90
2018,01,16,10,44,7.90
2018,01,16,10,45,7.90
2018,01,16,10,46,8.00
2018,01,16,10,47,8.00
2018,01,16,10,48,8.00
2018,01,16,10,49,8.10
2018,01,16,10,50,8.10
2018,01,16,10,51,8.10
2018,01,16,10,52,8.20
2018,01,16,10,53,8.20
2018,01,16,10,54,8.20
2018,01,16,10,55,8.20
2018,01,16,10,56,8.30
2018,01,16,10,57,8.30
2018,01,16,10,58,8.30
2018,01,16,10,59,8.40
2018,01,16,11,00,8.40
2018,01,16,11,01,8.50
2018,01,16,11,02,8.50
2018,01,16,11,03,8.60
2018,01,16,11,04,8.70
2018,01,16,11,05,8.80
2018,01,16,11,06,8.80
2018,01,16,11,07,8.90
2018,01,16,11,08,9.00
2018,01,16,11,09,9.10
2018,01,16,11,10,9.10
2018,01,16,11,11,9.10
2018,01,16,11,12,9.20
2018,01,16,11,13,9.20
2018,01,16,11,14,9.20
2018,01,16,11,15,9.20
2018,01,16,11,16,9.20
2018,01,16,11,17,9.20
2018,01,16,11,18,9.20
2018,01,16,11,19,9.20
2018,01,16,11,20,9.20
2018,01,16,11,21,9.20
2018,01,16,11,22,9.20
2018,01,16,11,23,9.20
2018,01,16,11,24,9.20
2018,01,16,11,25,9.20
2018,01,16,11,26,9.30
2018,01,16,11,27,9.30
2018,01,16,11,28,9.30
2018,01,16,11,29,9.30
2018,01,16,11,30,9.20
2018,01,16,11,31,9.20
2018,01,16,11,32,9.30
2018,01,16,11,33,9.30
2018,01,16,11,34,9.30
2018,01,16,11,35,9.30
2018,01,16,11,36,9.30
2018,01,16,11,37,9.30
2018,01,16,11,38,9.30
2018,01,16,11,39,9.30
2018,01,16,11,40,9.30
2018,01,16,11,41,9.30
2018,01,16,11,42,9.30
2018,01,16,11,43,9.30
2018,01,16,11,44,9.30
2018,01,16,11,45,9.30
2018,01,16,11,46,9.20
2018,01,16,11,47,9.20
2018,01,16,11,48,9.20
2018,01,16,11,49,9.20
2018,01,16,11,50,9.20
2018,01,16,11,51,9.30
2018,01,16,11,52,9.30
2018,01,16,11,53,9.30
2018,01,16,11,54,9.40
2018,01,16,11,55,9.40
2018,01,16,11,56,9.40
2018,01,16,11,57,9.40
2018,01,16,11,58,9.50
2018,01,16,11,59,9.50
2018,01,16,12,00,9.60
2018,01,16,12,01,9.60
2018,01,16,12,02,9.60
2018,01,16,12,03,9.60
2018,01,16,12,04,9.50
2018,01,16,12,05,9.50
2018,01,16,12,06,9.50
2018,01,16,12,07,9.40
2018,01,16,12,08,9.40
2018,01,16,12,09,9.40
2018,01,16,12,10,9.40
2018,01,16,12,11,9.30
2018,01,16,12,12,9.30
2018,01,16,12,13,9.30
2018,01,16,12,14,9.20
2018,01,16,12,15,9.20
2018,01,16,12,16,9.20
2018,01,16,12,17,9.20
2018,01,16,12,18,9.20
2018,01,16,12,19,9.20
2018,01,16,12,20,9.20
2018,01,16,12,21,9.20
2018,01,16,12,22,9.20
2018,01,16,12,23,9.20
2018,01,16,12,24,9.20
2018,01,16,12,25,9.10
2018,01,16,12,26,9.10
2018,01,16,12,27,9.10
2018,01,16,12,28,9.10
2018,01,16,12,29,9.10
2018,01,16,12,30,9.10
2018,01,16,12,31,9.10
2018,01,16,12,32,9.00
2018,01,16,12,33,8.90
2018,01,16,12,34,8.80
2018,01,16,12,35,8.70
2018,01,16,12,36,8.60
2018,01,16,12,37,8.50
2018,01,16,12,38,8.40
2018,01,16,12,39,8.40
2018,01,16,12,40,8.40
2018,01,16,12,41,8.40
2018,01,16,12,42,8.40
2018,01,16,12,43,8.40
2018,01,16,12,44,8.40
2018,01,16,12,45,8.40
2018,01,16,12,46,8.40
2018,01,16,12,47,8.40
2018,01,16,12,48,8.40
2018,01,16,12,49,8.40
2018,01,16,12,50,8.40
2018,01,16,12,51,8.40
2018,01,16,12,52,8.40
2018,01,16,12,53,8.30
2018,01,16,12,54,8.30
2018,01,16,12,55,8.30
2018,01,16,12,56,8.30
2018,01,16,12,57,8.40
2018,01,16,12,58,8.40
2018,01,16,12,59,8.40
2018,01,16,13,00,8.50
2018,01,16,13,01,8.60
2018,01,16,13,02,8.60
2018,01,16,13,03,8.70
2018,01,16,13,04,8.70
2018,01,16,13,05,8.80
2018,01,16,13,06,8.90
2018,01,16,13,07,8.90
2018,01,16,13,08,9.00
2018,01,16,13,09,9.00
2018,01,16,13,10,9.00
2018,01,16,13,11,9.10
2018,01,16,13,12,9.10
2018,01,16,13,13,9.20
2018,01,16,13,14,9.20
2018,01,16,13,15,9.20
2018,01,16,13,16,9.20
2018,01,16,13,17,9.30
2018,01,16,13,18,9.30
2018,01,16,13,19,9.40
2018,01,16,13,20,9.40
2018,01,16,13,21,9.40
2018,01,16,13,22,9.40
2018,01,16,13,23,9.50
2018,01,16,13,24,9.60
2018,01,16,13,25,9.60
2018,01,16,13,26,9.70
2018,01,16,13,27,9.70
2018,01,16,13,28,9.70
2018,01,16,13,29,9.70
2018,01,16,13,30,9.70
2018,01,16,13,31,9.70
2018,01,16,13,32,9.70
2018,01,16,13,33,9.70
2018,01,16,13,34,9.70
2018,01,16,13,35,9.70
2018,01,16,13,36,9.70
2018,01,16,13,37,9.80
2018,01,16,13,38,9.80
2018,01,16,13,39,9.80
2018,01,16,13,40,9.80
2018,01,16,13,41,9.80
2018,01,16,13,42,9.80
2018,01,16,13,43,9.80
2018,01,16,13,44,9.70
2018,01,16,13,45,9.80
2018,01,16,13,46,9.80
2018,01,16,13,47,9.80
2018,01,16,13,48,9.80
2018,01,16,13,49,9.80
2018,01,16,13,50,9.90
2018,01,16,13,51,9.90
2018,01,16,13,52,9.90
2018,01,16,13,53,9.90
2018,01,16,13,54,9.90
2018,01,16,13,55,9.90
2018,01,16,13,56,9.90
2018,01,16,13,57,9.90
2018,01,16,13,58,9.90
2018,01,16,13,59,9.90
2018,01,16,14,00,9.90
2018,01,16,14,01,9.90
2018,01,16,14,02,9.90
2018,01,16,14,03,9.90
2018,01,16,14,04,9.90
2018,01,16,14,05,9.90
2018,01,16,14,06,9.90
2018,01,16,14,07,9.90
2018,01,16,14,08,9.90
2018,01,16,14,09,9.90
2018,01,16,14,10,9.90
2018,01,16,14,11,9.90
2018,01,16,14,12,9.90
2018,01,16,14,13,9.90
2018,01,16,14,14,9.90
2018,01,16,14,15,9.90
2018,01,16,14,16,9.90
2018,01,16,14,17,9.90
2018,01,16,14,18,9.90
2018,01,16,14,19,9.90
2018,01,16,14,20,9.90
2018,01,16,14,21,9.80
2018,01,16,14,22,9.80
2018,01,16,14,23,9.80
2018,01,16,14,24,9.80
2018,01,16,14,25,9.80
2018,01,16,14,26,9.80
2018,01,16,14,27,9.70
2018,01,16,14,28,9.70
2018,01,16,14,29,9.70
2018,01,16,14,30,9.70
2018,01,16,14,31,9.70
2018,01,16,14,32,9.70
2018,01,16,14,33,9.70
2018,01,16,14,34,9.70
2018,01,16,14,35,9.70
2018,01,16,14,36,9.70
2018,01,16,14,37,9.70
2018,01,16,14,38,9.70
2018,01,16,14,39,9.70
2018,01,16,14,40,9.80
2018,01,16,14,41,9.80
2018,01,16,14,42,9.80
2018,01,16,14,43,9.80
2018,01,16,14,44,9.80
2018,01,16,14,45,9.80
2018,01,16,14,46,9.80
2018,01,16,14,47,9.80
2018,01,16,14,48,9.80
2018,01,16,14,49,9.80
2018,01,16,14,50,9.80
2018,01,16,14,51,9.80
2018,01,16,14,52,9.80
2018,01,16,14,53,9.80
2018,01,16,14,54,9.80
2018,01,16,14,55,9.80
2018,01,16,14,56,9.80
2018,01,16,14,57,9.80
2018,01,16,14,58,9.70
2018,01,16,14,59,9.80
2018,01,16,15,00,9.70
2018,01,16,15,01,9.70
2018,01,16,15,02,9.70
2018,01,16,15,03,9.70
2018,01,16,15,04,9.70
2018,01,16,15,05,9.70
2018,01,16,15,06,9.70
2018,01,16,15,07,9.80
2018,01,16,15,08,9.80
2018,01,16,15,09,9.80
2018,01,16,15,10,9.70
2018,01,16,15,11,9.80
2018,01,16,15,12,9.80
2018,01,16,15,13,9.80
2018,01,16,15,14,9.80
2018,01,16,15,15,9.80
2018,01,16,15,16,9.90
2018,01,16,15,17,9.90
2018,01,16,15,18,9.90
2018,01,16,15,19,9.90
2018,01,16,15,20,10.00
2018,01,16,15,21,10.00
2018,01,16,15,22,10.00
2018,01,16,15,23,10.00
2018,01,16,15,24,10.00
2018,01,16,15,25,10.00
2018,01,16,15,26,10.10
2018,01,16,15,27,10.10
2018,01,16,15,28,10.10
2018,01,16,15,29,10.10
2018,01,16,15,30,10.00
2018,01,16,15,31,10.00
2018,01,16,15,32,10.00
2018,01,16,15,33,10.00
2018,01,16,15,34,9.90
2018,01,16,15,35,9.90
2018,01,16,15,36,9.90
2018,01,16,15,37,9.90
2018,01,16,15,38,9.90
2018,01,16,15,39,9.90
2018,01,16,15,40,9.90
2018,01,16,15,41,9.80
2018,01,16,15,42,9.80
2018,01,16,15,43,9.80
2018,01,16,15,44,9.80
2018,01,16,15,45,9.80
2018,01,16,15,46,9.80
2018,01,16,15,47,9.80
2018,01,16,15,48,9.90
2018,01,16,15,49,9.90
2018,01,16,15,50,9.90
2018,01,16,15,51,9.90
2018,01,16,15,52,9.90
2018,01,16,15,53,9.90
2018,01,16,15,54,9.90
2018,01,16,15,55,9.90
2018,01,16,15,56,9.90
2018,01,16,15,57,9.90
2018,01,16,15,58,9.90
2018,01,16,15,59,9.80
2018,01,16,16,00,9.80
2018,01,16,16,01,9.80
2018,01,16,16,02,9.70
2018,01,16,16,03,9.70
2018,01,16,16,04,9.60
2018,01,16,16,05,9.60
2018,01,16,16,06,9.50
2018,01,16,16,07,9.50
2018,01,16,16,08,9.50
2018,01,16,16,09,9.40
2018,01,16,16,10,9.40
2018,01,16,16,11,9.40
2018,01,16,16,12,9.30
2018,01,16,16,13,9.30
2018,01,16,16,14,9.30
2018,01,16,16,15,9.30
2018,01,16,16,16,9.30
2018,01,16,16,17,9.20
2018,01,16,16,18,9.20
2018,01,16,16,19,9.20
2018,01,16,16,20,9.20
2018,01,16,16,21,9.20
2018,01,16,16,22,9.20
2018,01,16,16,23,9.20
2018,01,16,16,24,9.20
2018,01,16,16,25,9.20
2018,01,16,16,26,9.10
2018,01,16,16,27,9.10
2018,01,16,16,28,9.10
2018,01,16,16,29,9.10
2018,01,16,16,30,9.10
2018,01,16,16,31,9.10
2018,01,16,16,32,9.10
2018,01,16,16,33,9.00
2018,01,16,16,34,9.00
2018,01,16,16,35,9.00
2018,01,16,16,36,8.90
2018,01,16,16,37,8.90
2018,01,16,16,38,8.90
2018,01,16,16,39,8.90
2018,01,16,16,40,8.90
2018,01,16,16,41,8.90
2018,01,16,16,42,8.90
2018,01,16,16,43,8.90
2018,01,16,16,44,8.90
2018,01,16,16,45,8.90
2018,01,16,16,46,8.90
2018,01,16,16,47,8.90
2018,01,16,16,48,8.90
2018,01,16,16,49,8.90
2018,01,16,16,50,8.90
2018,01,16,16,51,8.90
2018,01,16,16,52,8.90
2018,01,16,16,53,8.90
2018,01,16,16,54,8.90
2018,01,16,16,55,8.90
2018,01,16,16,56,8.90
2018,01,16,16,57,8.90
2018,01,16,16,58,8.90
2018,01,16,16,59,8.90
2018,01,16,17,00,8.90
2018,01,16,17,01,8.90
2018,01,16,17,02,8.90
2018,01,16,17,03,8.90
2018,01,16,17,04,8.90
2018,01,16,17,05,8.90
2018,01,16,17,06,8.90
2018,01,16,17,07,8.90
2018,01,16,17,08,8.90
2018,01,16,17,09,8.90
2018,01,16,17,10,8.80
2018,01,16,17,11,8.80
2018,01,16,17,12,8.80
2018,01,16,17,13,8.80
2018,01,16,17,14,8.80
2018,01,16,17,15,8.80
2018,01,16,17,16,8.80
2018,01,16,17,17,8.80
2018,01,16,17,18,8.80
2018,01,16,17,19,8.80
2018,01,16,17,20,8.80
2018,01,16,17,21,8.80
2018,01,16,17,22,8.70
2018,01,16,17,23,8.70
2018,01,16,17,24,8.70
2018,01,16,17,25,8.70
2018,01,16,17,26,8.70
2018,01,16,17,27,8.70
2018,01,16,17,28,8.70
2018,01,16,17,29,8.70
2018,01,16,17,30,8.70
2018,01,16,17,31,8.70
2018,01,16,17,32,8.70
2018,01,16,17,33,8.70
2018,01,16,17,34,8.70
2018,01,16,17,35,8.70
2018,01,16,17,36,8.70
2018,01,16,17,37,8.70
2018,01,16,17,38,8.70
2018,01,16,17,39,8.70
2018,01,16,17,40,8.70
2018,01,16,17,41,8.70
2018,01,16,17,42,8.70
2018,01,16,17,43,8.70
2018,01,16,17,44,8.70
2018,01,16,17,45,8.70
2018,01,16,17,46,8.70
2018,01,16,17,47,8.70
2018,01,16,17,48,8.70
2018,01,16,17,49,8.70
2018,01,16,17,50,8.70
2018,01,16,17,51,8.70
2018,01,16,17,52,8.70
2018,01,16,17,53,8.70
2018,01,16,17,54,8.70
2018,01,16,17,55,8.70
2018,01,16,17,56,8.70
2018,01,16,17,57,8.70
2018,01,16,17,58,8.70
2018,01,16,17,59,8.70
2018,01,16,18,00,8.70
2018,01,16,18,01,8.70
2018,01,16,18,02,8.70
2018,01,16,18,03,8.70
2018,01,16,18,04,8.70
2018,01,16,18,05,8.70
2018,01,16,18,06,8.70
2018,01,16,18,07,8.70
2018,01,16,18,08,8.70
2018,01,16,18,09,8.70
2018,01,16,18,10,8.70
2018,01,16,18,11,8.70
2018,01,16,18,12,8.70
2018,01,16,18,13,8.70
2018,01,16,18,14,8.70
2018,01,16,18,15,8.70
2018,01,16,18,16,8.70
2018,01,16,18,17,8.70
2018,01,16,18,18,8.70
2018,01,16,18,19,8.70
2018,01,16,18,20,8.70
2018,01,16,18,21,8.70
2018,01,16,18,22,8.70
2018,01,16,18,23,8.70
2018,01,16,18,24,8.70
2018,01,16,18,25,8.70
2018,01,16,18,26,8.70
2018,01,16,18,27,8.70
2018,01,16,18,28,8.70
2018,01,16,18,29,8.70
2018,01,16,18,30,8.70
2018,01,16,18,31,8.70
2018,01,16,18,32,8.70
2018,01,16,18,33,8.70
2018,01,16,18,34,8.70
2018,01,16,18,35,8.70
2018,01,16,18,36,8.70
2018,01,16,18,37,8.70
2018,01,16,18,38,8.70
2018,01,16,18,39,8.70
2018,01,16,18,40,8.70
2018,01,16,18,41,8.70
2018,01,16,18,42,8.70
2018,01,16,18,43,8.70
2018,01,16,18,44,8.70
2018,01,16,18,45,8.70
2018,01,16,18,46,8.70
2018,01,16,18,47,8.70
2018,01,16,18,48,8.70
2018,01,16,18,49,8.70
2018,01,16,18,50,8.70
2018,01,16,18,51,8.60
2018,01,16,18,52,8.60
2018,01,16,18,53,8.60
2018,01,16,18,54,8.60
2018,01,16,18,55,8.60
2018,01,16,18,56,8.60
2018,01,16,18,57,8.50
2018,01,16,18,58,8.50
2018,01,16,18,59,8.60
2018,01,16,19,00,8.50
2018,01,16,19,01,8.60
2018,01,16,19,02,8.60
2018,01,16,19,03,8.60
2018,01,16,19,04,8.60
2018,01,16,19,05,8.60
2018,01,16,19,06,8.60
2018,01,16,19,07,8.50
2018,01,16,19,08,8.50
2018,01,16,19,09,8.50
2018,01,16,19,10,8.50
2018,01,16,19,11,8.50
2018,01,16,19,12,8.50
2018,01,16,19,13,8.50
2018,01,16,19,14,8.50
2018,01,16,19,15,8.50
2018,01,16,19,16,8.50
2018,01,16,19,17,8.50
2018,01,16,19,18,8.50
2018,01,16,19,19,8.50
2018,01,16,19,20,8.50
2018,01,16,19,21,8.50
2018,01,16,19,22,8.40
2018,01,16,19,23,8.40
2018,01,16,19,24,8.40
2018,01,16,19,25,8.40
2018,01,16,19,26,8.40
2018,01,16,19,27,8.40
2018,01,16,19,28,8.40
2018,01,16,19,29,8.40
2018,01,16,19,30,8.40
2018,01,16,19,31,8.40
2018,01,16,19,32,8.50
2018,01,16,19,33,8.50
2018,01,16,19,34,8.50
2018,01,16,19,35,8.50
2018,01,16,19,36,8.50
2018,01,16,19,37,8.50
2018,01,16,19,38,8.50
2018,01,16,19,39,8.40
2018,01,16,19,40,8.40
2018,01,16,19,41,8.50
2018,01,16,19,42,8.40
2018,01,16,19,43,8.40
2018,01,16,19,44,8.40
2018,01,16,19,45,8.40
2018,01,16,19,46,8.50
2018,01,16,19,47,8.50
2018,01,16,19,48,8.50
2018,01,16,19,49,8.50
2018,01,16,19,50,8.50
2018,01,16,19,51,8.50
2018,01,16,19,52,8.40
2018,01,16,19,53,8.40
2018,01,16,19,54,8.40
2018,01,16,19,55,8.30
2018,01,16,19,56,8.30
2018,01,16,19,57,8.30
2018,01,16,19,58,8.30
2018,01,16,19,59,8.30
2018,01,16,20,00,8.30
2018,01,16,20,01,8.30
2018,01,16,20,02,8.40
2018,01,16,20,03,8.40
2018,01,16,20,04,8.50
2018,01,16,20,05,8.50
2018,01,16,20,06,8.50
2018,01,16,20,07,8.50
2018,01,16,20,08,8.50
2018,01,16,20,09,8.50
2018,01,16,20,10,8.50
2018,01,16,20,11,8.50
2018,01,16,20,12,8.60
2018,01,16,20,13,8.60
2018,01,16,20,14,8.70
2018,01,16,20,15,8.70
2018,01,16,20,16,8.70
2018,01,16,20,17,8.70
2018,01,16,20,18,8.70
2018,01,16,20,19,8.70
2018,01,16,20,20,8.70
2018,01,16,20,21,8.70
2018,01,16,20,22,8.60
2018,01,16,20,23,8.60
2018,01,16,20,24,8.60
2018,01,16,20,25,8.60
2018,01,16,20,26,8.60
2018,01,16,20,27,8.60
2018,01,16,20,28,8.60
2018,01,16,20,29,8.50
2018,01,16,20,30,8.50
2018,01,16,20,31,8.40
2018,01,16,20,32,8.40
2018,01,16,20,33,8.40
2018,01,16,20,34,8.40
2018,01,16,20,35,8.40
2018,01,16,20,36,8.40
2018,01,16,20,37,8.40
2018,01,16,20,38,8.40
2018,01,16,20,39,8.40
2018,01,16,20,40,8.40
2018,01,16,20,41,8.40
2018,01,16,20,42,8.40
2018,01,16,20,43,8.40
2018,01,16,20,44,8.40
2018,01,16,20,45,8.40
2018,01,16,20,46,8.40
2018,01,16,20,47,8.40
2018,01,16,20,48,8.40
2018,01,16,20,49,8.40
2018,01,16,20,50,8.40
2018,01,16,20,51,8.50
2018,01,16,20,52,8.50
2018,01,16,20,53,8.50
2018,01,16,20,54,8.50
2018,01,16,20,55,8.60
2018,01,16,20,56,8.60
2018,01,16,20,57,8.70
2018,01,16,20,58,8.70
2018,01,16,20,59,8.80
2018,01,16,21,00,8.80
2018,01,16,21,01,8.80
2018,01,16,21,02,8.80
2018,01,16,21,03,8.90
2018,01,16,21,04,8.90
2018,01,16,21,05,8.90
2018,01,16,21,06,8.90
2018,01,16,21,07,8.90
2018,01,16,21,08,8.90
2018,01,16,21,09,8.90
2018,01,16,21,10,8.80
2018,01,16,21,11,8.80
2018,01,16,21,12,8.80
2018,01,16,21,13,8.80
2018,01,16,21,14,8.80
2018,01,16,21,15,8.80
2018,01,16,21,16,8.80
2018,01,16,21,17,8.80
2018,01,16,21,18,8.70
2018,01,16,21,19,8.70
2018,01,16,21,20,8.70
2018,01,16,21,21,8.70
2018,01,16,21,22,8.70
2018,01,16,21,23,8.70
2018,01,16,21,24,8.70
2018,01,16,21,25,8.70
2018,01,16,21,26,8.70
2018,01,16,21,27,8.70
2018,01,16,21,28,8.70
2018,01,16,21,29,8.70
2018,01,16,21,30,8.70
2018,01,16,21,31,8.80
2018,01,16,21,32,8.80
2018,01,16,21,33,8.80
2018,01,16,21,34,8.80
2018,01,16,21,35,8.80
2018,01,16,21,36,8.80
2018,01,16,21,37,8.80
2018,01,16,21,38,8.80
2018,01,16,21,39,8.80
2018,01,16,21,40,8.80
2018,01,16,21,41,8.80
2018,01,16,21,42,8.90
2018,01,16,21,43,8.90
2018,01,16,21,44,8.90
2018,01,16,21,45,8.90
2018,01,16,21,46,8.90
2018,01,16,21,47,8.90
2018,01,16,21,48,9.00
2018,01,16,21,49,9.00
2018,01,16,21,50,9.00
2018,01,16,21,51,9.00
2018,01,16,21,52,9.00
2018,01,16,21,53,9.00
2018,01,16,21,54,9.00
2018,01,16,21,55,9.00
2018,01,16,21,56,9.00
2018,01,16,21,57,9.00
2018,01,16,21,58,9.00
2018,01,16,21,59,9.10
2018,01,16,22,00,9.10
2018,01,16,22,01,9.10
2018,01,16,22,02,9.10
2018,01,16,22,03,9.10
2018,01,16,22,04,9.10
2018,01,16,22,05,9.10
2018,01,16,22,06,9.10
2018,01,16,22,07,9.10
2018,01,16,22,08,9.10
2018,01,16,22,09,9.20
2018,01,16,22,10,9.10
2018,01,16,22,11,9.20
2018,01,16,22,12,9.20
2018,01,16,22,13,9.20
2018,01,16,22,14,9.20
2018,01,16,22,15,9.20
2018,01,16,22,16,9.20
2018,01,16,22,17,9.20
2018,01,16,22,18,9.20
2018,01,16,22,19,9.20
2018,01,16,22,20,9.20
2018,01,16,22,21,9.20
2018,01,16,22,22,9.20
2018,01,16,22,23,9.20
2018,01,16,22,24,9.20
2018,01,16,22,25,9.20
2018,01,16,22,26,9.20
2018,01,16,22,27,9.20
2018,01,16,22,28,9.30
2018,01,16,22,29,9.30
2018,01,16,22,30,9.30
2018,01,16,22,31,9.30
2018,01,16,22,32,9.30
2018,01,16,22,33,9.30
2018,01,16,22,34,9.30
2018,01,16,22,35,9.30
2018,01,16,22,36,9.30
2018,01,16,22,37,9.30
2018,01,16,22,38,9.30
2018,01,16,22,39,9.30
2018,01,16,22,40,9.30
2018,01,16,22,41,9.30
2018,01,16,22,42,9.30
2018,01,16,22,43,9.30
2018,01,16,22,44,9.30
2018,01,16,22,45,9.40
2018,01,16,22,46,9.40
2018,01,16,22,47,9.40
2018,01,16,22,48,9.40
2018,01,16,22,49,9.40
2018,01,16,22,50,9.40
2018,01,16,22,51,9.40
2018,01,16,22,52,9.40
2018,01,16,22,53,9.40
2018,01,16,22,54,9.50
2018,01,16,22,55,9.50
2018,01,16,22,56,9.50
2018,01,16,22,57,9.40
2018,01,16,22,58,9.50
2018,01,16,22,59,9.50
2018,01,16,23,00,9.50
2018,01,16,23,01,9.40
2018,01,16,23,02,9.50
2018,01,16,23,03,9.50
2018,01,16,23,04,9.50
2018,01,16,23,05,9.50
2018,01,16,23,06,9.50
2018,01,16,23,07,9.50
2018,01,16,23,08,9.50
2018,01,16,23,09,9.50
2018,01,16,23,10,9.50
2018,01,16,23,11,9.50
2018,01,16,23,12,9.50
2018,01,16,23,13,9.50
2018,01,16,23,14,9.50
2018,01,16,23,15,9.50
2018,01,16,23,16,9.40
2018,01,16,23,17,9.40
2018,01,16,23,18,9.50
2018,01,16,23,19,9.50
2018,01,16,23,20,9.40
2018,01,16,23,21,9.40
2018,01,16,23,22,9.40
2018,01,16,23,23,9.40
2018,01,16,23,24,9.40
2018,01,16,23,25,9.40
2018,01,16,23,26,9.40
2018,01,16,23,27,9.40
2018,01,16,23,28,9.40
2018,01,16,23,29,9.40
2018,01,16,23,30,9.50
2018,01,16,23,31,9.50
2018,01,16,23,32,9.50
2018,01,16,23,33,9.50
2018,01,16,23,34,9.50
2018,01,16,23,35,9.50
2018,01,16,23,36,9.50
2018,01,16,23,37,9.50
2018,01,16,23,38,9.50
2018,01,16,23,39,9.50
2018,01,16,23,40,9.50
2018,01,16,23,41,9.50
2018,01,16,23,42,9.60
2018,01,16,23,43,9.50
2018,01,16,23,44,9.50
2018,01,16,23,45,9.50
2018,01,16,23,46,9.50
2018,01,16,23,47,9.50
2018,01,16,23,48,9.50
2018,01,16,23,49,9.50
2018,01,16,23,50,9.50
2018,01,16,23,51,9.50
2018,01,16,23,52,9.50
2018,01,16,23,53,9.50
2018,01,16,23,54,9.50
2018,01,16,23,55,9.50
2018,01,16,23,56,9.40
2018,01,16,23,57,9.50
2018,01,16,23,58,9.40
2018,01,16,23,59,9.40
